D8954 Weather Reports


Display with metric or nautical units.
time (UTC)temp
F
wind
direction
speed
MPH
gust
MPH
rain 1hr
in
rain 24hr
in
rain mn
in
humidity
%
barometer
mb
20260901232004 55 296 2.0 2.0 0.00 0.01 0.00 83 1021.4
20260901231504 55 296 1.0 2.0 0.00 0.01 0.00 83 1021.5
20260901231004 55 297 1.0 2.0 0.00 0.01 0.00 83 1021.4
20260901230505 55 297 1.0 2.0 0.00 0.01 0.00 83 1021.4
20260901230004 55 296 1.0 2.0 0.00 0.01 0.00 83 1021.2
20260901225505 55 296 0.0 1.0 0.00 0.01 0.00 84 1021.2
20260901224504 56 297 1.0 2.0 0.00 0.01 0.00 83 1021.2
20260901224005 56 296 2.0 3.0 0.00 0.01 0.00 83 1021.1
20260901223504 56 297 2.0 2.0 0.00 0.01 0.00 83 1021.1
20260901223005 56 297 2.0 2.0 0.00 0.01 0.00 83 1021.2
20260901222006 56 298 2.0 2.0 0.00 0.01 0.00 82 1021.1
20260901221504 57 298 2.0 3.0 0.00 0.01 0.00 81 1021.1
20260901221004 57 298 2.0 3.0 0.00 0.01 0.00 81 1021.1
20260901220504 56 299 2.0 3.0 0.00 0.01 0.00 82 1021.1
20260901220004 57 319 1.0 2.0 0.00 0.01 0.00 81 1021.2
20260901215504 57 273 3.0 3.0 0.00 0.01 0.01 82 1021.2
20260901215005 57 279 2.0 3.0 0.00 0.01 0.01 82 1021.1
20260901214504 57 279 2.0 3.0 0.00 0.01 0.01 81 1021.1
20260901213504 58 281 2.0 3.0 0.00 0.01 0.01 80 1021.0
20260901213004 58 280 2.0 3.0 0.00 0.01 0.01 81 1021.0
20260901212504 58 280 2.0 3.0 0.00 0.01 0.01 81 1021.0
20260901212005 58 281 2.0 3.0 0.00 0.01 0.01 81 1021.0
20260901211504 57 282 2.0 3.0 0.00 0.01 0.01 82 1021.0
20260901211005 57 285 2.0 3.0 0.00 0.01 0.01 82 1021.2
20260901210504 57 286 2.0 3.0 0.00 0.01 0.01 82 1021.2
20260901210004 57 290 3.0 3.0 0.00 0.01 0.01 82 1021.3
20260901205504 58 291 3.0 3.0 0.00 0.01 0.01 82 1021.3
20260901205004 58 288 3.0 3.0 0.00 0.01 0.01 82 1021.3
20260901204005 58 278 3.0 3.0 0.00 0.01 0.01 81 1021.2
20260901203505 58 278 2.0 3.0 0.00 0.01 0.01 81 1021.3
20260901203004 58 278 3.0 3.0 0.00 0.01 0.01 81 1021.2
20260901202504 58 272 2.0 3.0 0.00 0.01 0.01 81 1021.2
20260901202004 58 272 2.0 3.0 0.00 0.01 0.01 81 1021.1
20260901201004 58 272 2.0 3.0 0.00 0.01 0.01 80 1021.1
20260901200004 58 271 2.0 3.0 0.00 0.01 0.01 80 1021.1
20260901195504 58 271 2.0 3.0 0.00 0.01 0.01 80 1021.0
20260901195005 58 271 2.0 3.0 0.00 0.01 0.01 81 1021.0
20260901194504 59 271 2.0 3.0 0.00 0.01 0.01 80 1021.0
20260901194005 59 271 2.0 3.0 0.00 0.01 0.01 80 1021.0
20260901193504 59 271 2.0 3.0 0.00 0.01 0.01 80 1021.0
20260901193004 59 271 2.0 2.0 0.00 0.01 0.01 79 1020.9
20260901192505 60 271 2.0 2.0 0.00 0.01 0.01 78 1020.8
20260901192004 60 271 2.0 3.0 0.00 0.01 0.01 77 1020.7
20260901191504 60 271 2.0 3.0 0.00 0.01 0.01 78 1020.7
20260901191004 60 271 2.0 3.0 0.00 0.01 0.01 77 1020.6
20260901190504 60 271 2.0 3.0 0.00 0.02 0.01 77 1020.6
20260901190004 60 271 2.0 2.0 0.00 0.06 0.01 77 1020.6
20260901185504 60 271 2.0 3.0 0.00 0.09 0.01 77 1020.7
20260901185004 60 271 2.0 3.0 0.00 0.09 0.01 76 1020.7
20260901184005 61 273 2.0 3.0 0.00 0.09 0.01 75 1020.4
20260901183504 61 281 2.0 3.0 0.00 0.09 0.01 75 1020.4
20260901183004 62 282 2.0 3.0 0.00 0.09 0.01 73 1020.3
20260901182504 62 282 2.0 2.0 0.00 0.09 0.01 73 1020.4
20260901182005 62 282 2.0 2.0 0.00 0.09 0.01 74 1020.5
20260901181504 63 282 1.0 2.0 0.00 0.09 0.01 73 1020.5
20260901181004 64 282 1.0 2.0 0.00 0.09 0.01 71 1020.3
20260901180504 64 282 1.0 1.0 0.00 0.09 0.01 69 1020.3
20260901180006 65 282 1.0 1.0 0.00 0.09 0.01 68 1020.3
20260901175504 65 282 0.0 1.0 0.00 0.09 0.01 67 1020.3
20260901175005 66 282 0.0 1.0 0.00 0.09 0.01 68 1020.3
20260901174007 67 282 0.0 2.0 0.00 0.09 0.01 67 1020.3
20260901173504 67 282 0.0 2.0 0.00 0.09 0.01 66 1020.3
20260901173004 67 282 0.0 1.0 0.00 0.09 0.01 65 1020.3
20260901172004 67 282 1.0 2.0 0.00 0.09 0.01 64 1020.3
20260901171504 67 283 1.0 1.0 0.00 0.09 0.01 66 1020.3
20260901171004 68 283 0.0 1.0 0.00 0.09 0.01 65 1020.4
20260901170504 68 283 1.0 2.0 0.00 0.09 0.01 65 1020.3
20260901170004 68 283 1.0 2.0 0.00 0.09 0.01 66 1020.4
20260901165504 68 315 0.0 0.0 0.00 0.09 0.01 64 1020.3
20260901165004 68 315 0.0 0.0 0.00 0.09 0.01 64 1020.4
20260901164004 68 315 0.0 0.0 0.00 0.09 0.01 64 1020.4
20260901163504 68 315 0.0 0.0 0.00 0.09 0.01 64 1020.4
20260901163005 68 315 0.0 0.0 0.00 0.09 0.01 63 1020.4
20260901162506 68 316 1.0 3.0 0.00 0.09 0.01 63 1020.3
20260901162004 68 272 1.0 3.0 0.00 0.09 0.01 62 1020.3
20260901161504 69 281 0.0 5.0 0.00 0.09 0.01 62 1020.4
20260901160504 69 324 1.0 3.0 0.00 0.09 0.01 60 1020.3
20260901160004 69 311 0.0 3.0 0.00 0.09 0.01 62 1020.3
20260901155504 69 275 1.0 6.0 0.00 0.10 0.01 61 1020.3
20260901155005 69 1 1.0 3.0 0.00 0.10 0.01 62 1020.3
20260901154504 69 299 1.0 3.0 0.00 0.15 0.01 61 1020.3
20260901154004 70 259 1.0 2.0 0.00 0.22 0.01 61 1020.3
20260901153504 70 342 0.0 2.0 0.00 0.22 0.01 59 1020.3
20260901152504 70 339 1.0 7.0 0.00 0.22 0.01 59 1020.3
20260901152004 70 354 1.0 3.0 0.00 0.22 0.01 56 1020.3
20260901151504 71 0 1.0 3.0 0.00 0.22 0.01 58 1020.4
20260901151004 70 317 1.0 5.0 0.00 0.22 0.01 58 1020.4
20260901150503 70 356 4.0 8.0 0.00 0.22 0.01 56 1020.5
20260901150004 71 343 3.0 8.0 0.00 0.22 0.01 56 1020.3
20260901145504 71 342 2.0 5.0 0.00 0.22 0.01 56 1020.3
20260901145004 71 35 1.0 5.0 0.00 0.22 0.01 55 1020.3
20260901144504 71 204 1.0 5.0 0.00 0.22 0.01 55 1020.3
20260901144005 71 199 2.0 6.0 0.00 0.22 0.01 54 1020.3
20260901143505 70 197 3.0 6.0 0.00 0.22 0.01 55 1020.4
20260901143004 71 224 2.0 8.0 0.00 0.22 0.01 53 1020.3
20260901142504 72 280 3.0 8.0 0.00 0.22 0.01 52 1020.4
20260901142004 72 224 2.0 7.0 0.00 0.22 0.01 51 1020.4
20260901141004 71 337 5.0 8.0 0.00 0.22 0.01 53 1020.4
20260901140004 70 5 2.0 7.0 0.00 0.22 0.01 55 1020.5
20260901135504 70 283 2.0 7.0 0.00 0.22 0.01 54 1020.5
20260901135004 71 307 2.0 10.0 0.00 0.22 0.01 53 1020.6
20260901134504 72 9 5.0 12.0 0.00 0.22 0.01 53 1020.6
20260901134005 72 2 3.0 7.0 0.00 0.22 0.01 54 1020.6
20260901133504 72 275 2.0 12.0 0.00 0.22 0.01 56 1020.6
20260901133004 72 349 6.0 12.0 0.00 0.22 0.01 54 1020.6
20260901132504 72 258 5.0 9.0 0.00 0.22 0.01 54 1020.7
20260901132004 72 236 5.0 9.0 0.00 0.22 0.01 53 1020.7
20260901131504 71 214 4.0 12.0 0.00 0.22 0.01 55 1020.7
20260901131004 71 248 5.0 10.0 0.00 0.22 0.01 54 1020.7
20260901130505 70 295 3.0 9.0 0.00 0.22 0.01 58 1020.8
20260901130004 70 261 5.0 12.0 0.00 0.22 0.01 59 1020.8
20260901125504 70 338 2.0 9.0 0.00 0.22 0.01 61 1020.8
20260901125004 70 201 4.0 10.0 0.00 0.22 0.01 58 1020.9
20260901124505 71 354 5.0 9.0 0.00 0.22 0.01 57 1020.8
20260901124005 71 193 2.0 5.0 0.00 0.22 0.01 60 1020.8
20260901123504 70 204 4.0 8.0 0.00 0.22 0.01 60 1020.8
20260901123004 71 6 5.0 9.0 0.00 0.22 0.01 58 1020.8
20260901122504 71 310 4.0 8.0 0.00 0.22 0.01 60 1020.9
20260901121504 71 186 1.0 7.0 0.00 0.22 0.01 63 1020.9
20260901121004 70 208 2.0 7.0 0.00 0.22 0.01 64 1020.9
20260901115504 71 316 6.0 12.0 0.00 0.22 0.01 58 1021.0
20260901114504 69 292 3.0 9.0 0.00 0.22 0.01 62 1021.0
20260901114005 69 193 1.0 3.0 0.00 0.22 0.01 64 1021.1
20260901113504 68 223 3.0 5.0 0.00 0.22 0.01 62 1021.0
20260901113004 69 314 3.0 8.0 0.00 0.22 0.01 60 1021.0
20260901112504 70 261 3.0 8.0 0.00 0.22 0.01 63 1021.0
20260901112006 69 339 3.0 5.0 0.00 0.22 0.01 62 1020.9
20260901111004 69 284 6.0 12.0 0.00 0.24 0.01 64 1020.9
20260901110504 69 192 3.0 7.0 0.00 0.26 0.01 64 1020.9
20260901105004 69 270 2.0 8.0 0.00 0.26 0.01 67 1021.0
20260901104504 68 327 5.0 10.0 0.00 0.26 0.01 66 1021.0
20260901104004 68 329 5.0 12.0 0.00 0.26 0.01 66 1021.0
20260901103504 67 276 3.0 12.0 0.00 0.26 0.01 67 1021.0
20260901103004 67 303 6.0 10.0 0.00 0.26 0.01 67 1021.0
20260901102504 67 295 2.0 8.0 0.00 0.26 0.01 67 1021.0
20260901102004 68 8 4.0 12.0 0.00 0.26 0.01 67 1021.0
20260901101504 67 299 6.0 9.0 0.00 0.26 0.01 67 1021.0
20260901101003 67 330 5.0 9.0 0.00 0.26 0.01 66 1021.1
20260901100503 67 337 2.0 8.0 0.00 0.26 0.01 67 1021.1
20260901100004 67 299 5.0 9.0 0.00 0.26 0.01 67 1021.1
20260901095504 68 198 2.0 10.0 0.00 0.26 0.01 66 1021.1
20260901094504 69 328 3.0 12.0 0.00 0.26 0.01 67 1021.1
20260901094005 69 248 4.0 12.0 0.00 0.26 0.01 69 1021.1
20260901093504 68 244 2.0 5.0 0.00 0.26 0.01 69 1021.1
20260901093003 67 211 3.0 8.0 0.00 0.26 0.01 70 1021.1
20260901092004 67 272 2.0 5.0 0.00 0.26 0.01 71 1021.1
20260901091504 66 188 3.0 7.0 0.00 0.26 0.01 73 1021.1
20260901091003 66 312 4.0 10.0 0.00 0.26 0.01 72 1021.1
20260901090504 66 295 3.0 10.0 0.00 0.26 0.01 73 1021.2
20260901085503 65 240 5.0 12.0 0.00 0.26 0.01 74 1021.2
20260901085004 66 297 2.0 5.0 0.00 0.26 0.01 74 1021.1
20260901084504 65 314 1.0 5.0 0.00 0.26 0.01 74 1021.1
20260901084004 65 246 2.0 12.0 0.00 0.26 0.01 75 1021.1
20260901083004 65 271 1.0 5.0 0.00 0.26 0.01 75 1021.1
20260901082504 65 246 2.0 5.0 0.00 0.26 0.01 75 1021.2
20260901082003 64 251 2.0 7.0 0.00 0.26 0.01 77 1021.1
20260901081504 63 258 1.0 3.0 0.00 0.26 0.01 78 1021.2
20260901080503 63 322 1.0 6.0 0.00 0.26 0.01 76 1021.2
20260901080004 64 309 2.0 7.0 0.00 0.26 0.01 76 1021.2
20260901075504 63 275 2.0 3.0 0.00 0.26 0.01 76 1021.2
20260901075004 63 284 2.0 5.0 0.00 0.26 0.01 78 1021.2
20260901074504 62 315 1.0 3.0 0.00 0.26 0.01 78 1021.0
20260901074005 62 285 2.0 6.0 0.00 0.26 0.01 78 1021.0
20260901073504 62 255 2.0 7.0 0.00 0.26 0.01 78 1021.0
20260901072504 62 265 1.0 3.0 0.00 0.26 0.01 79 1020.9
20260901072004 62 247 1.0 7.0 0.00 0.26 0.01 80 1020.9
20260901071504 62 320 2.0 3.0 0.00 0.26 0.01 82 1020.9
20260901071004 61 337 3.0 6.0 0.00 0.26 0.01 82 1020.8
20260901070004 61 217 2.0 7.0 0.00 0.26 0.01 83 1020.8
20260901065504 61 197 2.0 6.0 0.00 0.26 0.01 83 1020.7
20260901065004 61 246 0.0 2.0 0.00 0.26 0.01 83 1020.8
20260901064503 60 248 1.0 3.0 0.00 0.26 0.01 83 1020.7
20260901064006 60 263 1.0 3.0 0.00 0.26 0.01 84 1020.6
20260901063004 59 202 3.0 5.0 0.00 0.26 0.01 85 1020.6
20260901062503 59 186 1.0 3.0 0.00 0.26 0.01 85 1020.6
20260901062004 59 200 1.0 3.0 0.00 0.26 0.01 86 1020.6
20260901061504 59 215 1.0 5.0 0.00 0.26 0.01 86 1020.6
20260901061004 59 228 2.0 5.0 0.00 0.26 0.01 87 1020.5
20260901060004 58 198 2.0 6.0 0.00 0.26 0.01 88 1020.4
20260901055004 57 198 2.0 5.0 0.00 0.26 0.01 88 1020.4
20260901054504 57 226 1.0 3.0 0.00 0.26 0.01 88 1020.4
20260901053504 56 219 3.0 5.0 0.00 0.26 0.01 89 1020.4
20260901053004 56 223 1.0 3.0 0.00 0.26 0.01 89 1020.4
20260901052504 56 219 2.0 5.0 0.00 0.26 0.01 89 1020.4
20260901052004 56 221 2.0 3.0 0.00 0.26 0.01 90 1020.5
20260901051504 55 222 1.0 3.0 0.00 0.26 0.01 89 1020.4
20260901051004 56 220 2.0 5.0 0.00 0.26 0.01 90 1020.4
20260901050503 55 223 2.0 5.0 0.00 0.26 0.01 90 1020.4
20260901045504 55 196 2.0 3.0 0.00 0.26 0.01 90 1020.4
20260901044506 55 238 2.0 5.0 0.00 0.26 0.01 90 1020.4
20260901044004 55 203 2.0 3.0 0.00 0.26 0.01 91 1020.4
20260901043504 55 241 1.0 3.0 0.00 0.26 0.01 91 1020.4
20260901042003 54 244 1.0 3.0 0.00 0.26 0.01 90 1020.4
20260901041504 54 243 1.0 5.0 0.00 0.26 0.01 90 1020.4
20260901041004 54 235 1.0 3.0 0.00 0.26 0.01 90 1020.3
20260901040503 54 214 2.0 3.0 0.00 0.26 0.01 90 1020.3
20260901040003 54 233 2.0 5.0 0.00 0.26 0.01 90 1020.3
20260901035503 55 220 2.0 6.0 0.00 0.26 0.01 90 1020.3
20260901035004 55 218 2.0 6.0 0.00 0.26 0.01 90 1020.3
20260901034506 55 224 2.0 3.0 0.00 0.26 0.01 90 1020.2
20260901034006 55 227 1.0 5.0 0.00 0.26 0.01 90 1020.1
20260901033006 55 235 2.0 3.0 0.00 0.26 0.01 91 1020.1
20260901032505 55 219 2.0 3.0 0.00 0.26 0.01 91 1020.1
20260901032005 55 230 2.0 3.0 0.00 0.26 0.01 91 1020.1
20260901031506 55 237 1.0 3.0 0.01 0.26 0.01 91 1020.1
20260901031005 55 225 2.0 5.0 0.01 0.26 0.01 91 1020.0
20260901030505 55 246 2.0 5.0 0.01 0.26 0.01 91 1020.0
20260901030005 54 221 2.0 3.0 0.01 0.26 0.01 91 1020.0
20260901025505 54 241 1.0 3.0 0.01 0.26 0.01 91 1020.0
20260901025005 54 239 1.0 3.0 0.01 0.26 0.01 91 1020.1
20260901024506 54 226 1.0 3.0 0.01 0.26 0.01 91 1020.1
20260901024006 54 227 1.0 3.0 0.01 0.26 0.01 91 1020.1
20260901023505 54 227 1.0 3.0 0.01 0.26 0.01 91 1020.0
20260901022505 54 223 1.0 2.0 0.01 0.26 0.01 91 1020.0
20260901022005 54 223 1.0 2.0 0.01 0.26 0.01 91 1019.8
20260901021006 55 223 1.0 2.0 0.00 0.25 0.00 90 1019.7
20260901020505 55 223 0.0 2.0 0.00 0.25 0.00 90 1019.6
20260901020006 55 223 0.0 1.0 0.00 0.25 0.00 90 1019.6
20260901015005 55 223 1.0 2.0 0.00 0.25 0.00 90 1019.4
20260901014505 55 223 1.0 2.0 0.00 0.25 0.00 90 1019.4
20260901014006 55 223 1.0 2.0 0.00 0.25 0.00 90 1019.4
20260901013506 55 222 1.0 2.0 0.00 0.25 0.00 90 1019.4
20260901013005 55 222 1.0 2.0 0.00 0.25 0.00 90 1019.4
20260901012505 56 222 1.0 2.0 0.00 0.25 0.00 90 1019.3
20260901012005 56 221 1.0 2.0 0.00 0.25 0.00 90 1019.4
20260901011505 55 221 0.0 1.0 0.00 0.25 0.00 90 1019.4
20260901011005 56 221 0.0 2.0 0.00 0.25 0.00 90 1019.4
20260901010505 56 221 1.0 2.0 0.00 0.26 0.00 90 1019.4
20260901010006 56 220 1.0 2.0 0.00 0.26 0.00 90 1019.4
20260901005506 56 220 1.0 2.0 0.00 0.27 0.00 90 1019.3
20260901005005 56 220 0.0 3.0 0.00 0.29 0.00 90 1019.3
20260901004006 57 213 1.0 2.0 0.00 0.34 0.00 90 1019.3
20260901003005 57 213 1.0 2.0 0.00 0.35 0.00 90 1019.2
20260901002505 57 212 2.0 3.0 0.00 0.35 0.00 90 1019.2
20260901002005 57 220 2.0 3.0 0.00 0.35 0.00 90 1019.2
20260901001507 58 226 2.0 3.0 0.00 0.35 0.00 90 1019.3
20260901001005 58 209 1.0 3.0 0.00 0.35 0.00 90 1019.2
20260901000505 58 215 2.0 3.0 0.00 0.35 0.00 91 1019.1
20260831235505 58 218 1.0 3.0 0.00 0.35 0.00 91 1019.2
20260831235005 57 213 2.0 2.0 0.00 0.35 0.00 91 1019.3
20260831234505 57 213 1.0 2.0 0.00 0.35 0.00 91 1019.2
20260831234006 57 213 2.0 3.0 0.00 0.35 0.00 91 1019.2
20260831233505 57 213 2.0 3.0 0.00 0.35 0.00 91 1019.3
20260831233005 57 208 2.0 3.0 0.00 0.35 0.00 91 1019.1
20260831232505 57 211 2.0 3.0 0.00 0.35 0.00 90 1019.1